Weather in Kaduj

Russia / Vologda Oblast     59°14′29″N   37°15′23″E
temp.,
°C
wind,
m/s
gust,
m/s
humid.,
%
clouds,
%
prec.,
mm/h
press.,
hPa
HPBL,
m
19 april, mon
mon1900:00+4ene3871100 0.0 1030283
03:00+2ene397483 0.0 1030326
06:00+1ene310795 0.0 1030331
09:00+5e58571 0.0 1031707
12:00+8e57403 0.0 10301438
15:00+9e56344 0.0 10301717
18:00+8e46428 0.0 10291612
21:00+4e396156 0.0 1030247
20 april, tue
tue2000:00+2e3106640 0.0 1030328
03:000e39751 0.0 1030271
06:000e310761 0.0 1029332
09:00+5ese584229 0.0 1028901
12:00+8ese583996 0.0 10261510
15:00+10ese5842100 0.0 10241674
18:00+8ese4950100 0.0 10221458
21:00+6e4106094 0.0 1021467
21 april, wed
wed2100:00+4e41166100 0.0 1019494
03:00+3e51266100 0.0 1016574
06:00+2e51366100 0.0 1011667
09:00+1e51395100 2.4 1009788
12:00+3e51193100 0.9 1005841
15:00+2e41196100 2.1 1003588
18:00+1ene3998100 2.9 1001365
21:00+1ssw2499100 4.7 1001166
22 april, thu
thu2200:00+1ssw41098100 0.7 1003749
03:00+1ssw5992100 0.9 1005877
06:00+2s3998100 0.4 1006717
09:00+3s51098100 1.6 10061008
12:00+2sw41097100 0.9 1009572
15:00+2sw41098100 2.1 1011612
18:00+4wsw2689100 0.1 1013641
21:00+1sse249828 0.1 101582
23 april, fri
fri2300:00−1se119936 0.0 101634
03:00+1se379989 0.0 1015153
06:00+2se3898100 0.0 1015255
09:00+5se499694 0.0 1014303
12:00+11sse598151 0.0 1013743
15:00+14sse5107617 0.3 10111127
18:00+12sse5117945 0.1 1010949
21:00+9se5168620 0.1 1009640